Time,TemperatureF,DewpointF,PressureIn,WindDirection,WindDirectionDegrees,WindSpeedMPH,WindSpeedGustMPH,Humidity,HourlyPrecipIn,Conditions,Clouds,dailyrainin,SoftwareType,DateUTC
2013-07-30 00:03:00,83.0,78.0,30.09,NNW,342,8.0,19.0,84,0.00,,,0.00,,2013-07-30 04:03:00,
2013-07-30 00:23:00,83.0,78.0,30.09,NNW,335,8.0,15.0,84,0.00,,,0.00,,2013-07-30 04:23:00,
2013-07-30 00:33:00,83.0,78.0,30.09,NNW,329,3.0,14.0,85,0.00,,,0.00,,2013-07-30 04:33:00,
2013-07-30 00:53:00,83.0,78.0,30.09,North,2,4.0,10.0,85,0.00,,,0.00,,2013-07-30 04:53:00,
2013-07-30 01:13:00,83.0,78.0,30.09,NW,321,11.0,14.0,85,0.00,,,0.00,,2013-07-30 05:13:00,
2013-07-30 01:23:00,84.0,79.0,30.09,North,352,2.0,12.0,85,0.00,,,0.00,,2013-07-30 05:23:00,
2013-07-30 01:33:00,84.0,79.0,30.09,NNW,334,3.0,9.0,86,0.00,,,0.00,,2013-07-30 05:33:00,
2013-07-30 01:45:00,83.0,78.0,30.08,NNW,337,2.0,12.0,84,0.00,,,0.00,,2013-07-30 05:45:00,
2013-07-30 01:52:00,83.0,78.0,30.08,NNW,340,8.0,13.0,84,0.00,,,0.00,,2013-07-30 05:52:00,
2013-07-30 02:13:00,84.0,79.0,30.08,NNW,342,7.0,11.0,84,0.00,,,0.00,,2013-07-30 06:13:00,
2013-07-30 02:23:00,84.0,79.0,30.08,North,2,7.0,13.0,85,0.00,,,0.00,,2013-07-30 06:23:00,
2013-07-30 02:33:00,84.0,79.0,30.07,NNW,344,6.0,11.0,85,0.00,,,0.00,,2013-07-30 06:33:00,
2013-07-30 02:43:00,84.0,79.0,30.07,NNW,333,8.0,12.0,85,0.00,,,0.00,,2013-07-30 06:43:00,
2013-07-30 02:53:00,84.0,79.0,30.06,NNW,348,6.0,16.0,85,0.00,,,0.00,,2013-07-30 06:53:00,
2013-07-30 03:03:00,84.0,79.0,30.06,North,2,8.0,11.0,84,0.00,,,0.00,,2013-07-30 07:03:00,
2013-07-30 03:13:00,84.0,79.0,30.06,North,2,10.0,14.0,84,0.00,,,0.00,,2013-07-30 07:13:00,
2013-07-30 03:23:00,84.0,79.0,30.06,NNW,337,9.0,14.0,84,0.00,,,0.00,,2013-07-30 07:23:00,
2013-07-30 03:33:00,83.0,77.0,30.05,North,2,7.0,13.0,83,0.00,,,0.00,,2013-07-30 07:33:00,
2013-07-30 03:43:00,83.0,77.0,30.04,North,2,8.0,12.0,83,0.00,,,0.00,,2013-07-30 07:43:00,
2013-07-30 03:53:00,83.0,77.0,30.05,North,2,7.0,12.0,83,0.00,,,0.00,,2013-07-30 07:53:00,
2013-07-30 04:03:00,83.0,77.0,30.05,North,2,6.0,10.0,83,0.00,,,0.00,,2013-07-30 08:03:00,
2013-07-30 04:13:00,83.0,78.0,30.05,NNW,340,8.0,12.0,84,0.00,,,0.00,,2013-07-30 08:13:00,
2013-07-30 04:23:00,83.0,78.0,30.05,NNW,347,6.0,12.0,84,0.00,,,0.00,,2013-07-30 08:23:00,
2013-07-30 04:43:00,83.0,78.0,30.04,NNW,342,4.0,10.0,85,0.00,,,0.00,,2013-07-30 08:43:00,
2013-07-30 04:53:00,83.0,78.0,30.04,NNW,342,9.0,13.0,85,0.00,,,0.00,,2013-07-30 08:53:00,
2013-07-30 05:03:00,83.0,78.0,30.04,NNW,348,8.0,13.0,85,0.00,,,0.00,,2013-07-30 09:03:00,
2013-07-30 05:13:00,83.0,78.0,30.04,North,7,8.0,12.0,86,0.00,,,0.00,,2013-07-30 09:13:00,
2013-07-30 05:43:00,83.0,78.0,30.04,NE,34,1.0,9.0,85,0.02,,,0.02,,2013-07-30 09:43:00,
2013-07-30 05:53:00,82.0,77.0,30.04,ENE,73,3.0,12.0,84,0.02,,,0.02,,2013-07-30 09:53:00,
2013-07-30 07:53:00,81.0,78.0,30.08,NNW,327,0.0,5.0,92,0.00,,,0.02,,2013-07-30 11:53:00,
2013-07-30 08:22:00,81.0,78.0,30.08,NNW,338,1.0,6.0,92,0.00,,,0.02,,2013-07-30 12:22:00,
2013-07-30 08:33:00,81.0,78.0,30.09,North,2,9.0,15.0,91,0.00,,,0.02,,2013-07-30 12:33:00,
2013-07-30 08:42:00,81.0,78.0,30.08,NNW,344,17.0,23.0,91,0.00,,,0.02,,2013-07-30 12:42:00,
2013-07-30 08:53:00,81.0,77.0,30.08,North,2,13.0,25.0,89,0.00,,,0.02,,2013-07-30 12:53:00,
2013-07-30 09:43:00,80.0,77.0,30.09,NNW,347,5.0,9.0,91,0.02,,,0.04,,2013-07-30 13:43:00,
2013-07-30 10:02:00,80.0,77.0,30.09,NNW,343,3.0,5.0,91,0.00,,,0.04,,2013-07-30 14:02:00,
2013-07-30 10:43:00,80.0,78.0,30.10,NW,314,0.0,4.0,93,0.00,,,0.04,,2013-07-30 14:43:00,
2013-07-30 10:53:00,81.0,79.0,30.10,WNW,303,1.0,5.0,93,0.00,,,0.04,,2013-07-30 14:53:00,
2013-07-30 11:02:00,81.0,79.0,30.10,NNW,337,1.0,6.0,93,0.00,,,0.04,,2013-07-30 15:02:00,
2013-07-30 11:23:00,82.0,80.0,30.11,NNW,332,2.0,8.0,93,0.00,,,0.04,,2013-07-30 15:23:00,
2013-07-30 11:33:00,82.0,79.0,30.11,NNW,341,3.0,6.0,92,0.00,,,0.04,,2013-07-30 15:33:00,
2013-07-30 11:43:00,82.0,79.0,30.11,NNW,341,1.0,6.0,92,0.00,,,0.04,,2013-07-30 15:43:00,
2013-07-30 11:52:00,83.0,80.0,30.11,North,349,6.0,10.0,92,0.00,,,0.04,,2013-07-30 15:52:00,
2013-07-30 12:02:00,83.0,80.0,30.11,NNW,341,6.0,11.0,91,0.00,,,0.04,,2013-07-30 16:02:00,
2013-07-30 12:44:00,85.0,80.0,30.10,NNW,342,8.0,15.0,86,0.00,,,0.04,,2013-07-30 16:44:00,
2013-07-30 12:52:00,86.0,81.0,30.11,NNW,338,4.0,15.0,84,0.00,,,0.04,,2013-07-30 16:52:00,
2013-07-30 13:02:00,86.0,80.0,30.10,NNW,343,10.0,15.0,83,0.00,,,0.04,,2013-07-30 17:02:00,
2013-07-30 13:43:00,88.0,80.0,30.09,NNW,332,9.0,16.0,78,0.00,,,0.04,,2013-07-30 17:43:00,
2013-07-30 13:53:00,88.0,80.0,30.09,North,2,12.0,18.0,78,0.00,,,0.04,,2013-07-30 17:53:00,
2013-07-30 14:03:00,88.0,80.0,30.10,NW,317,11.0,16.0,78,0.00,,,0.04,,2013-07-30 18:03:00,
2013-07-30 14:52:00,88.0,80.0,30.08,NNW,338,12.0,15.0,77,0.00,,,0.04,,2013-07-30 18:52:00,
2013-07-30 15:03:00,88.0,80.0,30.08,NNW,343,11.0,19.0,77,0.00,,,0.04,,2013-07-30 19:03:00,
2013-07-30 15:52:00,89.0,82.0,30.06,NNW,337,7.0,19.0,79,0.00,,,0.04,,2013-07-30 19:52:00,
2013-07-30 16:02:00,89.0,82.0,30.06,West,269,6.0,12.0,79,0.00,,,0.04,,2013-07-30 20:02:00,
2013-07-30 16:12:00,88.0,79.0,30.05,NNW,329,7.0,13.0,76,0.00,,,0.04,,2013-07-30 20:12:00,
2013-07-30 16:43:00,88.0,81.0,30.04,NW,317,7.0,12.0,79,0.00,,,0.04,,2013-07-30 20:43:00,
2013-07-30 16:52:00,88.0,81.0,30.04,NNW,335,5.0,9.0,79,0.00,,,0.04,,2013-07-30 20:52:00,
2013-07-30 17:12:00,87.0,80.0,30.04,NNW,335,5.0,10.0,79,0.00,,,0.04,,2013-07-30 21:12:00,
2013-07-30 17:22:00,87.0,80.0,30.04,NNW,338,5.0,13.0,81,0.00,,,0.04,,2013-07-30 21:22:00,
2013-07-30 17:32:00,86.0,79.0,30.05,NNW,336,4.0,10.0,81,0.00,,,0.04,,2013-07-30 21:32:00,
2013-07-30 17:42:00,86.0,79.0,30.04,NNW,343,7.0,12.0,81,0.00,,,0.04,,2013-07-30 21:42:00,
2013-07-30 17:52:00,86.0,79.0,30.04,West,267,5.0,12.0,80,0.00,,,0.04,,2013-07-30 21:52:00,
2013-07-30 18:02:00,86.0,79.0,30.04,North,2,12.0,15.0,79,0.00,,,0.04,,2013-07-30 22:02:00,
2013-07-30 18:12:00,86.0,79.0,30.04,NNW,348,6.0,11.0,79,0.00,,,0.04,,2013-07-30 22:12:00,
2013-07-30 18:32:00,85.0,78.0,30.04,NNW,340,8.0,18.0,80,0.00,,,0.04,,2013-07-30 22:32:00,
2013-07-30 18:43:00,85.0,78.0,30.04,NNW,340,7.0,16.0,81,0.00,,,0.04,,2013-07-30 22:43:00,
2013-07-30 18:52:00,85.0,79.0,30.04,NNW,346,13.0,15.0,82,0.00,,,0.04,,2013-07-30 22:52:00,
2013-07-30 19:02:00,85.0,79.0,30.05,North,2,12.0,16.0,83,0.00,,,0.04,,2013-07-30 23:02:00,
2013-07-30 19:13:00,85.0,79.0,30.05,NNW,343,11.0,16.0,83,0.00,,,0.04,,2013-07-30 23:13:00,
2013-07-30 19:22:00,85.0,80.0,30.05,North,357,12.0,15.0,84,0.00,,,0.04,,2013-07-30 23:22:00,
2013-07-30 19:32:00,85.0,80.0,30.06,NNW,343,9.0,15.0,84,0.00,,,0.04,,2013-07-30 23:32:00,
2013-07-30 19:42:00,85.0,80.0,30.06,North,2,8.0,18.0,84,0.00,,,0.04,,2013-07-30 23:42:00,
2013-07-30 19:53:00,84.0,79.0,30.06,NNW,338,6.0,13.0,84,0.00,,,0.04,,2013-07-30 23:53:00,
2013-07-30 20:02:00,84.0,79.0,30.06,NNW,342,8.0,15.0,84,0.00,,,0.04,,2013-07-31 00:02:00,
2013-07-30 20:12:00,84.0,79.0,30.06,NNW,330,8.0,18.0,85,0.00,,,0.04,,2013-07-31 00:12:00,
2013-07-30 20:22:00,84.0,79.0,30.06,North,2,11.0,16.0,85,0.00,,,0.04,,2013-07-31 00:22:00,
2013-07-30 20:32:00,84.0,78.0,30.06,North,2,11.0,15.0,83,0.00,,,0.04,,2013-07-31 00:32:00,
2013-07-30 20:43:00,84.0,78.0,30.06,NNW,343,9.0,14.0,82,0.00,,,0.04,,2013-07-31 00:43:00,
2013-07-30 20:53:00,84.0,78.0,30.06,NNW,342,9.0,14.0,82,0.00,,,0.04,,2013-07-31 00:53:00,
2013-07-30 21:02:00,84.0,79.0,30.06,NNW,346,7.0,14.0,84,0.00,,,0.04,,2013-07-31 01:02:00,
2013-07-30 21:12:00,84.0,79.0,30.06,NNW,346,7.0,14.0,84,0.00,,,0.04,,2013-07-31 01:12:00,
2013-07-30 21:32:00,84.0,79.0,30.07,NNW,336,11.0,15.0,84,0.00,,,0.04,,2013-07-31 01:32:00,
2013-07-30 21:52:00,84.0,79.0,30.07,NNW,344,10.0,18.0,85,0.00,,,0.04,,2013-07-31 01:52:00,
2013-07-30 22:02:00,84.0,79.0,30.06,North,2,9.0,18.0,85,0.00,,,0.04,,2013-07-31 02:02:00,
2013-07-30 22:12:00,84.0,79.0,30.04,WNW,284,0.0,11.0,84,0.00,,,0.04,,2013-07-31 02:12:00,
2013-07-30 22:22:00,84.0,79.0,30.04,NNW,342,7.0,11.0,84,0.00,,,0.04,,2013-07-31 02:22:00,
2013-07-30 22:32:00,84.0,79.0,30.04,NNW,342,7.0,11.0,84,0.00,,,0.04,,2013-07-31 02:32:00,
2013-07-30 22:43:00,83.0,78.0,30.04,North,2,11.0,14.0,84,0.00,,,0.04,,2013-07-31 02:43:00,
2013-07-30 22:52:00,83.0,78.0,30.06,North,2,8.0,15.0,85,0.00,,,0.04,,2013-07-31 02:52:00,
2013-07-30 23:02:00,83.0,78.0,30.06,North,2,11.0,16.0,85,0.00,,,0.04,,2013-07-31 03:02:00,
2013-07-30 23:42:00,82.0,76.0,30.06,North,2,10.0,14.0,81,0.00,,,0.04,,2013-07-31 03:42:00,